User: anonymous   Login
Location: Baller�as
(41.9020°N, 0.1554°W)
Time: 10:46:44
(UTC+00:00)
Language:

Cosmos 1535 Rocket - Orbit

View from above orbital plane
View from above orbital plane
View from above satellite
View from above satellite

Ground track
Ground track

The orbit data is extracted from the following two-line orbital elements,

1 14680U 84010B   20299.84093297 +.00000032 +00000-0 +17394-4 0  9999
2 14680 082.9603 211.8878 0036672 222.4353 197.0606 13.76513543844552
Epoch (UTC): 25 October 2020 20:10:56
Eccentricity: 0.0036672
inclination: 82.9603°
perigee height: 949 km
apogee height: 1003 km
right ascension of ascending node: 211.8878°
argument of perigee: 222.4353°
revolutions per day: 13.76513543
mean anomaly at epoch: 197.0606°
orbit number at epoch: 84455

The dashed part of the orbit path shows where the satellite is in the earth's shadow,  

DLR